Hayward, WI

4:53 PM CDT on May 25, 2018 (GMT -0500)
Sawyer County

Weather History for KHYR - January, 2013

Change the Weather History Date:

Sunday, January 27, 2013

  Actual Average Record
Temperature  
Mean Temperature 26 °F -  
Max Temperature 32 °F 24 °F 48 °F (2006)
Min Temperature 19 °F -7 °F -25 °F (2009)
Degree Days  
Heating Degree Days 40    
Moisture  
Dew Point 21 °F    
Average Humidity 77    
Maximum Humidity 93    
Minimum Humidity 54    
Precipitation  
Precipitation 0.22 in - - ()
Sea Level Pressure  
Sea Level Pressure 29.96 in    
Wind  
Wind Speed 6 mph (SE)    
Max Wind Speed 12 mph    
Max Gust Speed 16 mph    
Visibility 4 miles    
Events Fog , Snow    
Averages and records for this station are not official NWS values.
T = Trace of Precipitation, MM = Missing Value Source: NWS Daily Summary

Daily Weather History Graph

Daily Weather History Graph

Search for Another Location

Airport or City:

Astronomy

Jan. 27, 2013 Rise Set
Actual Time 7:33 AM CST 5:04 PM CST
Civil Twilight 7:01 AM CST 5:36 PM CST
Nautical Twilight 6:24 AM CST 6:12 PM CST
Astronomical Twilight 5:49 AM CST 6:48 PM CST
Moon 6:04 PM CST (1/27) 7:21 AM CST (1/27)
Length of Visible Light 10h 35m
Length of Day
9h 30m
Full, 100% of the Moon is Illuminated
Jan 27
Full
Feb 3
Last Quarter
Feb 10
New
Feb 17
First Quarter
Feb 25
Full

Hourly Weather History & Observations

Time (CST) Temp. Windchill Dew Point Humidity Pressure Visibility Wind Dir Wind Speed Gust Speed Precip Events Conditions
12:53 AM 19.9 °F 10.1 °F 9.0 °F 62% 30.22 in 10.0 mi SSE 8.1 mph - N/A   Scattered Clouds
1:53 AM 21.0 °F 12.4 °F 9.0 °F 60% 30.21 in 10.0 mi SSE 6.9 mph 16.1 mph N/A   Overcast
2:53 AM 21.0 °F 13.4 °F 9.0 °F 60% 30.19 in 10.0 mi SSE 5.8 mph - N/A   Scattered Clouds
3:53 AM 21.0 °F 13.4 °F 9.0 °F 60% 30.18 in 10.0 mi SSE 5.8 mph - N/A   Mostly Cloudy
4:53 AM 19.9 °F 14.9 °F 9.0 °F 62% 30.16 in 10.0 mi SE 3.5 mph - N/A   Clear
5:53 AM 19.9 °F 13.4 °F 9.0 °F 62% 30.14 in 10.0 mi SSE 4.6 mph - N/A   Clear
6:53 AM 21.0 °F 13.4 °F 10.0 °F 63% 30.13 in 10.0 mi SE 5.8 mph - N/A   Partly Cloudy
7:53 AM 21.0 °F 14.6 °F 10.9 °F 65% 30.13 in 10.0 mi SE 4.6 mph - N/A   Clear
8:53 AM 23.0 °F 15.8 °F 12.0 °F 63% 30.12 in 10.0 mi SE 5.8 mph - N/A   Scattered Clouds
9:53 AM 26.1 °F 17.6 °F 12.9 °F 58% 30.11 in 10.0 mi SSE 8.1 mph - N/A   Overcast
10:53 AM 28.0 °F 21.7 °F 14.0 °F 56% 30.10 in 10.0 mi Variable 5.8 mph - N/A   Overcast
11:53 AM 30.0 °F 20.5 °F 15.1 °F 54% 30.07 in 10.0 mi SSE 11.5 mph - N/A   Overcast
12:53 PM 30.9 °F 22.8 °F 16.0 °F 54% 30.04 in 10.0 mi SSE 9.2 mph - N/A   Overcast
1:15 PM 32.0 °F 25.6 °F 17.6 °F 55% 29.98 in 10.0 mi South 6.9 mph - N/A   Overcast
1:40 PM 32.0 °F 24.8 °F 17.6 °F 55% 29.96 in 10.0 mi SSE 8.1 mph - N/A   Overcast
1:53 PM 32.0 °F 24.8 °F 19.0 °F 59% 30.01 in 10.0 mi SSE 8.1 mph - N/A   Overcast
2:53 PM 30.9 °F 23.5 °F 21.0 °F 67% 30.01 in 9.0 mi SE 8.1 mph - 0.00 in Snow Light Snow
3:15 PM 28.4 °F 21.2 °F 23.0 °F 80% 29.94 in 1.8 mi SE 6.9 mph - 0.00 in Snow Light Snow
3:53 PM 28.9 °F 21.9 °F 24.1 °F 82% 29.98 in 1.0 mi SE 6.9 mph - 0.01 in Snow Light Snow
4:00 PM 28.4 °F 21.2 °F 24.8 °F 86% 29.92 in 1.2 mi ESE 6.9 mph - 0.00 in Snow Light Snow
4:29 PM 28.4 °F 21.2 °F 24.8 °F 86% 29.91 in 0.8 mi ESE 6.9 mph - 0.00 in Snow Light Snow
4:53 PM 28.9 °F 21.1 °F 25.0 °F 85% 29.96 in 1.0 mi ESE 8.1 mph 16.1 mph 0.01 in Snow Light Snow
5:09 PM 28.4 °F 22.2 °F 24.8 °F 86% 29.90 in 1.8 mi ESE 5.8 mph - 0.00 in Snow Light Snow
5:16 PM 28.4 °F 22.2 °F 24.8 °F 86% 29.89 in 1.5 mi ESE 5.8 mph - 0.01 in Snow Light Snow
5:39 PM 28.4 °F 23.3 °F 24.8 °F 86% 29.89 in 1.0 mi East 4.6 mph - 0.02 in Snow Light Snow
5:53 PM 28.9 °F 22.8 °F 25.0 °F 85% 29.95 in 1.0 mi East 5.8 mph - 0.03 in Snow Light Snow
6:20 PM 28.4 °F 23.3 °F 24.8 °F 86% 29.88 in 1.5 mi ESE 4.6 mph - 0.02 in Snow Light Snow
6:53 PM 28.9 °F 22.8 °F 25.0 °F 85% 29.93 in 1.5 mi ESE 5.8 mph - 0.03 in Snow Light Snow
7:08 PM 28.4 °F 23.3 °F 24.8 °F 86% 29.87 in 1.0 mi ESE 4.6 mph - 0.01 in Snow Light Snow
7:20 PM 28.4 °F 22.2 °F 24.8 °F 86% 29.87 in 2.0 mi ESE 5.8 mph - 0.01 in Snow Light Snow
7:34 PM 28.4 °F 23.3 °F 24.8 °F 86% 29.86 in 3.0 mi ESE 4.6 mph - 0.01 in Snow Light Snow
7:53 PM 28.9 °F - 25.0 °F 85% 29.92 in 2.5 mi Calm Calm - 0.01 in Snow Light Snow
8:09 PM 28.4 °F - 26.6 °F 93% 29.87 in 1.2 mi Calm Calm - 0.01 in Snow Light Snow
8:21 PM 28.4 °F - 24.8 °F 86% 29.86 in 1.0 mi Calm Calm - 0.03 in Snow Light Snow
8:26 PM 28.4 °F - 26.6 °F 93% 29.86 in 0.8 mi Calm Calm - 0.03 in Snow Light Snow
8:43 PM 28.4 °F 23.3 °F 26.6 °F 93% 29.85 in 0.5 mi ESE 4.6 mph - 0.06 in Fog , Snow Snow
8:53 PM 28.0 °F - 26.1 °F 92% 29.91 in 0.8 mi Calm Calm - 0.07 in Snow Light Snow
9:05 PM 28.4 °F 24.6 °F 26.6 °F 93% 29.85 in 0.8 mi ESE 3.5 mph - 0.01 in Snow Light Snow
9:53 PM 28.0 °F 24.2 °F 25.0 °F 88% 29.89 in 0.8 mi East 3.5 mph - 0.04 in Snow Light Snow
10:01 PM 28.4 °F 24.6 °F 26.6 °F 93% 29.83 in 1.0 mi SE 3.5 mph - 0.00 in Snow Light Snow
10:09 PM 28.4 °F - 24.8 °F 86% 29.83 in 1.2 mi Calm Calm - 0.00 in Snow Light Snow
10:24 PM 28.4 °F - 24.8 °F 86% 29.83 in 1.0 mi Calm Calm - 0.01 in Snow Light Snow
10:36 PM 28.4 °F - 24.8 °F 86% 29.82 in 1.2 mi Calm Calm - 0.01 in Snow Light Snow
10:53 PM 28.0 °F - 25.0 °F 88% 29.87 in 1.5 mi Calm Calm - 0.02 in Snow Light Snow
11:27 PM 28.4 °F - 24.8 °F 86% 29.82 in 2.0 mi Calm Calm - 0.00 in Snow Light Snow
11:42 PM 28.4 °F - 24.8 °F 86% 29.82 in 3.0 mi Calm Calm - 0.00 in Snow Light Snow